Location: Pardubice
(50.0330°N, 15.7830°E)
Time: 00:27:24
(UTC+01:00)

ISS - Pass Details

Date: 03 October 2020
Orbit: 417 x 420 km, 51.6° (Epoch: 30 October)

Event Time Altitude Azimuth Distance (km) Brightness Sun altitude
Rises 21:09:35 0° 281° (W) 2,368 1.3 -25.8°
Reaches altitude 10° 21:12:37 10° 251° (WSW) 1,500 -0.4 -26.2°
Enters shadow 21:13:23 12° 238° (WSW) 1,386 -0.8 -26.3°
